Location: Calais Saint-Pierre
(50.9509°N, 1.8522°E)
Time: 22:38:47
(UTC+00:00)

Cosmos 2297 Rocket - Pass Details

Date: 15 May 2026
Orbit: 838 x 842 km, 71.0° (Epoch: 10 June)

Event Time Altitude Azimuth Distance (km) Brightness Sun altitude
Exits shadow 23:28:03 38° 169° (SSE) 1,257 2.6 -19.8°
Maximum altitude 23:29:56 56° 113° (ESE) 993 2.4 -19.9°
Drops below altitude 10° 23:35:27 10° 36° (NE) 2,466 5.3 -19.9°
Sets 23:37:56 0° 33° (NNE) 3,405 6.2 -20.0°
